• In Deutschland
  • Länderverzeichnis
  • Für 7 Tage
  • Wassertemperatur
  • Satellitenkarten
  • Wetterkarte
  • Widgets
  • user-avatar
    Anmelden

    Stündliche Wetter Sankt Pölten

    Heute, 20 September, Mittwoch

    Zeit Temperatur Niederschläge Wind Luftdruck Luftfeuchtigkeit
    00:00 +9°C° 1,5 mm 3 m/S 735 mmHg 96%
    01:00 +8°C° 0 mm 4 m/S 735 mmHg 95%
    02:00 +8°C° 1,2 mm 4 m/S 735 mmHg 95%
    03:00 +8°C° 1,2 mm 4 m/S 735 mmHg 95%
    04:00 +9°C° 1,2 mm 3 m/S 735 mmHg 94%
    05:00 +8°C° 0,5 mm 4 m/S 735 mmHg 94%
    06:00 +8°C° 0,5 mm 4 m/S 735 mmHg 94%
    07:00 +9°C° 0 mm 3 m/S 735 mmHg 94%
    08:00 +10°C° 0,3 mm 3 m/S 736 mmHg 92%
    09:00 +10°C° 0,3 mm 4 m/S 736 mmHg 90%
    10:00 +11°C° 0,3 mm 4 m/S 736 mmHg 88%
    11:00 +12°C° 0,4 mm 4 m/S 736 mmHg 86%
    12:00 +12°C° 0,4 mm 4 m/S 736 mmHg 83%
    13:00 +12°C° 0 mm 4 m/S 736 mmHg 81%
    14:00 +13°C° 0,2 mm 4 m/S 736 mmHg 80%
    15:00 +13°C° 0,2 mm 4 m/S 736 mmHg 79%
    16:00 +13°C° 0,2 mm 3 m/S 736 mmHg 77%
    17:00 +12°C° 0,1 mm 3 m/S 737 mmHg 82%
    18:00 +11°C° 0,1 mm 3 m/S 737 mmHg 86%
    19:00 +9°C° 0,1 mm 2 m/S 737 mmHg 91%
    20:00 +9°C° 0,1 mm 2 m/S 738 mmHg 91%
    21:00 +9°C° 0,1 mm 2 m/S 738 mmHg 92%
    22:00 +8°C° 0,1 mm 2 m/S 738 mmHg 92%
    23:00 +8°C° 0,1 mm 2 m/S 738 mmHg 93%

    Morgen, 21 September, Donnerstag

    Zeit Temperatur Niederschläge Wind Luftdruck Luftfeuchtigkeit
    00:00 +8°C° 0,1 mm 2 m/S 738 mmHg 93%
    01:00 +8°C° 0,1 mm 3 m/S 738 mmHg 94%
    02:00 +8°C° 0 mm 3 m/S 738 mmHg 94%
    03:00 +8°C° 0 mm 3 m/S 738 mmHg 94%
    04:00 +8°C° 0 mm 3 m/S 738 mmHg 94%
    05:00 +8°C° 0 mm 3 m/S 738 mmHg 93%
    06:00 +9°C° 0 mm 3 m/S 738 mmHg 93%
    07:00 +9°C° 0 mm 3 m/S 739 mmHg 92%
    08:00 +10°C° 0 mm 3 m/S 738 mmHg 87%
    09:00 +11°C° 0 mm 4 m/S 738 mmHg 83%
    10:00 +12°C° 0 mm 4 m/S 738 mmHg 78%
    11:00 +13°C° 0,1 mm 4 m/S 738 mmHg 74%
    12:00 +14°C° 0,1 mm 4 m/S 738 mmHg 71%
    13:00 +14°C° 0,1 mm 4 m/S 738 mmHg 67%
    14:00 +14°C° 0,1 mm 4 m/S 738 mmHg 67%
    15:00 +15°C° 0,1 mm 4 m/S 737 mmHg 68%
    16:00 +15°C° 0,1 mm 4 m/S 737 mmHg 68%
    17:00 +13°C° 0 mm 3 m/S 737 mmHg 75%
    18:00 +12°C° 0 mm 3 m/S 738 mmHg 81%
    19:00 +10°C° 0 mm 2 m/S 738 mmHg 88%
    20:00 +10°C° 0 mm 2 m/S 738 mmHg 89%
    21:00 +9°C° 0 mm 2 m/S 738 mmHg 90%
    22:00 +9°C° 0 mm 2 m/S 739 mmHg 91%
    23:00 +9°C° 0 mm 2 m/S 739 mmHg 91%

    übermorgen, 22 September, Freitag

    Zeit Temperatur Niederschläge Wind Luftdruck Luftfeuchtigkeit
    00:00 +9°C° 0 mm 2 m/S 739 mmHg 92%
    01:00 +8°C° 0 mm 2 m/S 739 mmHg 92%
    02:00 +8°C° 0 mm 2 m/S 739 mmHg 92%
    03:00 +8°C° 0 mm 2 m/S 739 mmHg 92%
    04:00 +8°C° 0 mm 2 m/S 739 mmHg 92%
    05:00 +9°C° 0 mm 2 m/S 739 mmHg 90%
    06:00 +9°C° 0 mm 2 m/S 739 mmHg 88%
    07:00 +10°C° 0 mm 2 m/S 739 mmHg 86%
    08:00 +13°C° 0 mm 2 m/S 739 mmHg 78%
    09:00 +15°C° 0 mm 2 m/S 739 mmHg 69%
    10:00 +17°C° 0 mm 2 m/S 739 mmHg 61%
    11:00 +18°C° 0 mm 2 m/S 739 mmHg 58%
    12:00 +19°C° 0 mm 2 m/S 739 mmHg 56%
    13:00 +19°C° 0 mm 2 m/S 739 mmHg 54%
    14:00 +19°C° 0 mm 2 m/S 739 mmHg 56%
    15:00 +19°C° 0 mm 2 m/S 739 mmHg 58%
    16:00 +20°C° 0 mm 1 m/S 739 mmHg 61%
    17:00 +18°C° 0 mm 1 m/S 739 mmHg 68%
    18:00 +15°C° 0 mm 1 m/S 739 mmHg 75%
    19:00 +13°C° 0 mm 1 m/S 739 mmHg 82%
    20:00 +13°C° 0 mm 1 m/S 740 mmHg 83%
    21:00 +12°C° 0 mm 1 m/S 740 mmHg 85%
    22:00 +12°C° 0 mm 1 m/S 740 mmHg 86%
    23:00 +12°C° 0 mm 1 m/S 740 mmHg 87%

    23 September, Samstag

    Zeit Temperatur Niederschläge Wind Luftdruck Luftfeuchtigkeit
    00:00 +11°C° 0 mm 1 m/S 740 mmHg 87%
    01:00 +11°C° 0 mm 1 m/S 741 mmHg 88%
    02:00 +11°C° 0 mm 1 m/S 740 mmHg 88%
    03:00 +11°C° 0 mm 1 m/S 740 mmHg 88%
    04:00 +11°C° 0 mm 1 m/S 740 mmHg 88%
    05:00 +11°C° 0 mm 1 m/S 740 mmHg 87%
    06:00 +12°C° 0 mm 1 m/S 740 mmHg 85%
    07:00 +12°C° 0 mm 1 m/S 740 mmHg 84%
    08:00 +14°C° 0 mm 1 m/S 740 mmHg 76%
    09:00 +18°C° 0 mm 1 m/S 740 mmHg 68%
    10:00 +20°C° 0 mm 1 m/S 740 mmHg 60%
    11:00 +20°C° 0 mm 2 m/S 740 mmHg 58%
    12:00 +20°C° 0 mm 2 m/S 739 mmHg 56%
    13:00 +21°C° 0 mm 2 m/S 739 mmHg 54%
    14:00 +22°C° 0 mm 1 m/S 739 mmHg 58%
    15:00 +21°C° 0 mm 1 m/S 739 mmHg 61%
    16:00 +21°C° 0 mm 1 m/S 738 mmHg 64%
    17:00 +19°C° 0 mm 1 m/S 739 mmHg 71%
    18:00 +16°C° 0 mm 1 m/S 739 mmHg 79%
    19:00 +14°C° 0 mm 1 m/S 739 mmHg 86%
    20:00 +14°C° 0 mm 1 m/S 739 mmHg 87%
    21:00 +13°C° 0 mm 1 m/S 739 mmHg 88%
    22:00 +13°C° 0 mm 1 m/S 739 mmHg 89%
    23:00 +13°C° 0 mm 1 m/S 739 mmHg 90%

    24 September, Sonntag

    Zeit Temperatur Niederschläge Wind Luftdruck Luftfeuchtigkeit
    00:00 +12°C° 0 mm 1 m/S 739 mmHg 91%
    01:00 +12°C° 0 mm 1 m/S 739 mmHg 92%
    02:00 +12°C° 0 mm 1 m/S 739 mmHg 92%
    03:00 +11°C° 0 mm 1 m/S 739 mmHg 93%
    04:00 +11°C° 0 mm 1 m/S 739 mmHg 93%
    05:00 +11°C° 0 mm 1 m/S 739 mmHg 92%
    06:00 +12°C° 0 mm 1 m/S 740 mmHg 91%
    07:00 +12°C° 0 mm 1 m/S 740 mmHg 89%
    08:00 +14°C° 0 mm 1 m/S 740 mmHg 81%
    09:00 +16°C° 0 mm 1 m/S 740 mmHg 73%
    10:00 +20°C° 0 mm 1 m/S 740 mmHg 65%
    11:00 +20°C° 0,1 mm 1 m/S 740 mmHg 62%
    12:00 +20°C° 0,1 mm 2 m/S 739 mmHg 59%
    13:00 +20°C° 0,1 mm 2 m/S 739 mmHg 56%
    14:00 +20°C° 0 mm 2 m/S 739 mmHg 57%
    15:00 +19°C° 0 mm 2 m/S 739 mmHg 59%
    16:00 +19°C° 0 mm 2 m/S 739 mmHg 60%
    17:00 +17°C° 0 mm 2 m/S 739 mmHg 68%
    18:00 +15°C° 0 mm 2 m/S 739 mmHg 75%
    19:00 +14°C° 0 mm 1 m/S 739 mmHg 83%
    20:00 +13°C° 0,1 mm 1 m/S 739 mmHg 85%
    21:00 +13°C° 0,1 mm 1 m/S 739 mmHg 87%
    22:00 +13°C° 0,1 mm 1 m/S 739 mmHg 89%
    23:00 +13°C° 0,2 mm 1 m/S 739 mmHg 90%

    25 September, Montag

    Zeit Temperatur Niederschläge Wind Luftdruck Luftfeuchtigkeit
    00:00 +12°C° 0,2 mm 1 m/S 739 mmHg 91%
    01:00 +12°C° 0,2 mm 1 m/S 739 mmHg 92%
    02:00 +12°C° 0,5 mm 2 m/S 739 mmHg 93%
    03:00 +12°C° 0,5 mm 2 m/S 738 mmHg 94%
    04:00 +12°C° 0,5 mm 2 m/S 738 mmHg 94%
    05:00 +12°C° 0,8 mm 2 m/S 738 mmHg 94%
    06:00 +12°C° 0,8 mm 2 m/S 738 mmHg 94%
    07:00 +13°C° 0,8 mm 2 m/S 738 mmHg 95%
    08:00 +13°C° 0,3 mm 2 m/S 738 mmHg 93%
    09:00 +14°C° 0,3 mm 2 m/S 738 mmHg 91%
    10:00 +14°C° 0,3 mm 1 m/S 738 mmHg 89%
    11:00 +15°C° 0,3 mm 1 m/S 738 mmHg 85%
    12:00 +16°C° 0,3 mm 1 m/S 737 mmHg 80%
    13:00 +18°C° 0,3 mm 1 m/S 737 mmHg 76%
    14:00 +18°C° 0,3 mm 1 m/S 737 mmHg 76%
    15:00 +18°C° 0,3 mm 1 m/S 737 mmHg 76%
    16:00 +18°C° 0,3 mm 1 m/S 737 mmHg 76%
    17:00 +16°C° 0,2 mm 1 m/S 737 mmHg 81%
    18:00 +13°C° 0,2 mm 0 m/S 737 mmHg 87%
    19:00 +12°C° 0,2 mm 0 m/S 737 mmHg 92%
    20:00 +12°C° 0 mm 0 m/S 737 mmHg 93%
    21:00 +12°C° 0 mm 1 m/S 737 mmHg 94%
    22:00 +12°C° 0 mm 1 m/S 738 mmHg 94%
    23:00 +11°C° 0 mm 1 m/S 738 mmHg 95%
    Mehr zeigen